TimeCST,TemperatureF,Dew PointF,Humidity,Sea Level PressureIn,VisibilityMPH,Wind Direction,Wind SpeedMPH,Gust SpeedMPH,PrecipitationIn,Events,Conditions,WindDirDegrees,DateUTC
12:15 AM,31.6,28.9,90,30.21,10.0,Calm,Calm,-,N/A,,Overcast,0,2012-01-25 06:15:00
12:35 AM,31.6,28.9,90,30.21,10.0,NW,4.6,-,N/A,,Overcast,320,2012-01-25 06:35:00
12:55 AM,32.0,29.1,89,30.20,10.0,Calm,Calm,-,N/A,,Overcast,0,2012-01-25 06:55:00
1:15 AM,32.0,29.1,89,30.19,10.0,Calm,Calm,-,N/A,,Overcast,0,2012-01-25 07:15:00
1:35 AM,32.0,29.1,89,30.19,10.0,Calm,Calm,-,N/A,,Overcast,0,2012-01-25 07:35:00
1:55 AM,32.0,29.1,89,30.19,10.0,Calm,Calm,-,N/A,,Overcast,0,2012-01-25 07:55:00
2:35 AM,31.5,28.9,90,30.19,10.0,Calm,Calm,-,N/A,,Overcast,0,2012-01-25 08:35:00
2:55 AM,31.1,28.9,92,30.19,10.0,Calm,Calm,-,N/A,,Overcast,0,2012-01-25 08:55:00
3:15 AM,31.1,28.9,92,30.18,10.0,Calm,Calm,-,N/A,,Overcast,0,2012-01-25 09:15:00
3:35 AM,31.1,29.1,92,30.17,10.0,Calm,Calm,-,N/A,,Overcast,0,2012-01-25 09:35:00
3:55 AM,30.7,28.6,92,30.16,10.0,Calm,Calm,-,N/A,,Overcast,0,2012-01-25 09:55:00
4:15 AM,30.0,28.2,93,30.15,7.0,Calm,Calm,-,N/A,,Overcast,0,2012-01-25 10:15:00
4:35 AM,28.6,27.0,94,30.14,7.0,Calm,Calm,-,N/A,,Mostly Cloudy,0,2012-01-25 10:35:00
4:55 AM,26.6,25.7,96,30.14,5.0,Calm,Calm,-,N/A,,Scattered Clouds,0,2012-01-25 10:55:00
5:15 AM,25.2,24.3,96,30.16,5.0,WNW,4.6,-,N/A,,Clear,290,2012-01-25 11:15:00
5:35 AM,24.8,24.1,97,30.15,3.0,Calm,Calm,-,N/A,,Clear,0,2012-01-25 11:35:00
5:55 AM,24.8,23.9,96,30.16,3.0,West,3.5,-,N/A,,Clear,270,2012-01-25 11:55:00
6:15 AM,23.7,22.8,96,30.16,3.0,West,3.5,-,N/A,,Clear,270,2012-01-25 12:15:00
6:35 AM,21.7,20.7,96,30.15,3.0,WNW,5.8,-,N/A,,Clear,290,2012-01-25 12:35:00
7:15 AM,20.8,19.6,95,30.15,4.0,West,4.6,-,N/A,,Clear,280,2012-01-25 13:15:00
7:35 AM,21.2,20.3,96,30.14,1.8,Calm,Calm,-,N/A,,Overcast,0,2012-01-25 13:35:00
7:55 AM,21.6,20.5,96,30.13,0.2,NW,4.6,-,N/A,Fog,Light Freezing Fog,310,2012-01-25 13:55:00
8:15 AM,22.6,21.7,96,30.13,0.2,WNW,3.5,-,N/A,Fog,Light Freezing Fog,290,2012-01-25 14:15:00
8:55 AM,22.5,21.6,96,30.11,0.2,West,4.6,-,N/A,Fog,Light Freezing Fog,280,2012-01-25 14:55:00
9:15 AM,23.2,22.3,96,30.12,0.2,West,4.6,-,N/A,Fog,Light Freezing Fog,280,2012-01-25 15:15:00
9:55 AM,29.7,29.1,98,30.14,2.5,West,3.5,-,N/A,,Overcast,280,2012-01-25 15:55:00
10:15 AM,30.9,30.4,98,30.13,2.0,WNW,4.6,-,N/A,,Overcast,290,2012-01-25 16:15:00
10:35 AM,31.1,30.7,99,30.14,2.0,West,6.9,-,N/A,,Overcast,270,2012-01-25 16:35:00
10:55 AM,31.6,31.3,99,30.13,2.5,WNW,3.5,-,N/A,,Overcast,300,2012-01-25 16:55:00
11:15 AM,31.6,31.1,98,30.13,2.5,WSW,3.5,-,N/A,,Overcast,250,2012-01-25 17:15:00
11:35 AM,31.8,30.7,96,30.12,2.5,WSW,4.6,-,N/A,,Overcast,250,2012-01-25 17:35:00
11:55 AM,32.0,30.4,94,30.11,2.5,West,5.8,-,N/A,,Overcast,260,2012-01-25 17:55:00
12:15 PM,32.0,30.2,93,30.09,2.5,SW,4.6,-,N/A,,Overcast,230,2012-01-25 18:15:00
12:35 PM,32.5,30.6,92,30.07,3.0,SW,3.5,-,N/A,,Overcast,220,2012-01-25 18:35:00
12:55 PM,33.4,30.4,89,30.05,4.0,WSW,5.8,-,N/A,,Overcast,240,2012-01-25 18:55:00
1:15 PM,34.2,30.6,87,30.05,4.0,WSW,8.1,-,N/A,,Overcast,250,2012-01-25 19:15:00
1:35 PM,34.0,30.6,87,30.04,4.0,WSW,6.9,-,N/A,,Overcast,250,2012-01-25 19:35:00
1:55 PM,34.0,30.4,87,30.03,5.0,SW,3.5,-,N/A,,Overcast,230,2012-01-25 19:55:00
2:15 PM,34.7,30.9,86,30.04,5.0,West,11.5,-,N/A,,Overcast,270,2012-01-25 20:15:00
2:35 PM,34.9,30.9,85,30.02,5.0,West,8.1,-,N/A,,Overcast,260,2012-01-25 20:35:00
2:55 PM,34.9,31.1,86,30.01,5.0,SW,6.9,-,N/A,,Overcast,220,2012-01-25 20:55:00
3:15 PM,35.8,31.1,83,30.01,7.0,SSW,8.1,-,N/A,,Overcast,200,2012-01-25 21:15:00
3:35 PM,36.0,31.1,82,29.99,7.0,SSW,3.5,-,N/A,,Mostly Cloudy,200,2012-01-25 21:35:00
3:55 PM,36.5,30.7,80,29.97,10.0,SSE,4.6,-,N/A,,Scattered Clouds,150,2012-01-25 21:55:00
4:15 PM,36.1,30.9,81,29.97,10.0,South,5.8,-,N/A,,Clear,170,2012-01-25 22:15:00
4:35 PM,36.1,30.6,80,29.97,10.0,SSW,5.8,-,N/A,,Clear,210,2012-01-25 22:35:00
4:55 PM,35.4,30.2,81,29.96,10.0,South,6.9,-,N/A,,Clear,180,2012-01-25 22:55:00
5:15 PM,34.0,29.5,84,29.94,10.0,South,3.5,-,N/A,,Clear,180,2012-01-25 23:15:00
5:35 PM,32.0,28.9,88,29.93,10.0,SSE,3.5,-,N/A,,Clear,160,2012-01-25 23:35:00
5:55 PM,32.2,29.8,91,29.94,10.0,SSE,3.5,-,N/A,,Clear,150,2012-01-25 23:55:00
6:15 PM,32.0,30.2,93,29.94,10.0,Calm,Calm,-,N/A,,Clear,0,2012-01-26 00:15:00
6:35 PM,30.4,28.0,91,29.94,10.0,SSE,4.6,-,N/A,,Clear,150,2012-01-26 00:35:00
6:55 PM,28.2,27.0,95,29.93,10.0,SE,4.6,-,N/A,,Clear,140,2012-01-26 00:55:00
7:15 PM,30.9,29.8,96,29.93,10.0,SE,3.5,-,N/A,,Clear,140,2012-01-26 01:15:00
7:35 PM,29.5,28.6,96,29.93,7.0,ESE,4.6,-,N/A,,Clear,120,2012-01-26 01:35:00
7:55 PM,27.1,26.4,97,29.93,7.0,SSE,5.8,-,N/A,,Clear,160,2012-01-26 01:55:00
8:15 PM,26.8,25.7,96,29.91,7.0,SSE,5.8,-,N/A,,Clear,150,2012-01-26 02:15:00
8:35 PM,27.5,26.6,96,29.91,7.0,SSE,6.9,-,N/A,,Clear,150,2012-01-26 02:35:00
8:55 PM,28.2,26.8,94,29.90,7.0,SSE,5.8,-,N/A,,Clear,150,2012-01-26 02:55:00
9:15 PM,29.5,28.2,95,29.91,7.0,South,6.9,-,N/A,,Clear,170,2012-01-26 03:15:00
9:35 PM,32.0,29.8,92,29.92,10.0,SSE,8.1,-,N/A,,Clear,160,2012-01-26 03:35:00
9:55 PM,32.0,30.0,92,29.93,10.0,South,9.2,-,N/A,,Clear,170,2012-01-26 03:55:00
10:15 PM,32.0,30.0,92,29.93,10.0,SSE,9.2,-,N/A,,Clear,160,2012-01-26 04:15:00
10:35 PM,32.0,30.0,92,29.91,10.0,South,9.2,-,N/A,,Clear,170,2012-01-26 04:35:00
10:55 PM,31.6,29.7,92,29.91,10.0,South,10.4,-,N/A,,Clear,170,2012-01-26 04:55:00
11:15 PM,31.1,28.9,92,29.90,10.0,South,9.2,-,N/A,,Clear,170,2012-01-26 05:15:00
11:35 PM,31.1,29.1,92,29.90,10.0,South,8.1,-,N/A,,Clear,180,2012-01-26 05:35:00
11:55 PM,30.7,28.9,93,29.90,10.0,South,6.9,-,N/A,,Clear,170,2012-01-26 05:55:00